• In Deutschland
  • Länderverzeichnis
  • Für 7 Tage
  • Wassertemperatur
  • Satellitenkarten
  • Wetterkarte
  • Widgets
  • user-avatar
    Anmelden

    Stündliche Wetter Bad Münstereifel

    Heute, 12 Dezember, Dienstag

    Zeit Temperatur Niederschläge Wind Luftdruck Luftfeuchtigkeit
    00:00 -2°C° 0 mm 6 m/S 709 mmHg 91%
    01:00 -3°C° 0,2 mm 6 m/S 711 mmHg 90%
    02:00 -3°C° 0,2 mm 6 m/S 712 mmHg 89%
    03:00 -3°C° 0,2 mm 6 m/S 714 mmHg 88%
    04:00 -3°C° 0,1 mm 6 m/S 716 mmHg 88%
    05:00 -2°C° 0,1 mm 5 m/S 717 mmHg 88%
    06:00 -2°C° 0 mm 4 m/S 719 mmHg 90%
    07:00 -2°C° 0 mm 4 m/S 720 mmHg 89%
    08:00 -2°C° 0 mm 4 m/S 721 mmHg 89%
    09:00 -2°C° 0 mm 4 m/S 722 mmHg 88%
    10:00 -1°C° 0,1 mm 4 m/S 723 mmHg 87%
    11:00 -1°C° 0,1 mm 4 m/S 724 mmHg 86%
    12:00 0°C° 0,1 mm 4 m/S 725 mmHg 85%
    13:00 -1°C° 0,2 mm 4 m/S 725 mmHg 86%
    14:00 -1°C° 0,2 mm 4 m/S 726 mmHg 87%
    15:00 -1°C° 0,2 mm 4 m/S 726 mmHg 88%
    16:00 0°C° 0,1 mm 3 m/S 727 mmHg 89%
    17:00 -1°C° 0,1 mm 3 m/S 727 mmHg 89%
    18:00 -1°C° 0,1 mm 3 m/S 728 mmHg 90%
    19:00 -2°C° 0 mm 3 m/S 728 mmHg 90%
    20:00 -2°C° 0 mm 3 m/S 729 mmHg 90%
    21:00 -2°C° 0 mm 3 m/S 729 mmHg 90%
    22:00 -2°C° 0 mm 3 m/S 729 mmHg 91%
    23:00 -2°C° 0 mm 3 m/S 729 mmHg 91%

    Morgen, 13 Dezember, Mittwoch

    Zeit Temperatur Niederschläge Wind Luftdruck Luftfeuchtigkeit
    00:00 -2°C° 0 mm 3 m/S 729 mmHg 91%
    01:00 -3°C° 0 mm 4 m/S 729 mmHg 91%
    02:00 -3°C° 0 mm 4 m/S 729 mmHg 90%
    03:00 -2°C° 0 mm 4 m/S 728 mmHg 90%
    04:00 -2°C° 0 mm 5 m/S 728 mmHg 89%
    05:00 -2°C° 0 mm 5 m/S 727 mmHg 88%
    06:00 -2°C° 0 mm 6 m/S 727 mmHg 87%
    07:00 -2°C° 0,1 mm 6 m/S 726 mmHg 86%
    08:00 -1°C° 0,1 mm 7 m/S 726 mmHg 85%
    09:00 -1°C° 0,1 mm 7 m/S 725 mmHg 84%
    10:00 -1°C° 0,7 mm 7 m/S 724 mmHg 84%
    11:00 0°C° 0,7 mm 8 m/S 723 mmHg 84%
    12:00 0°C° 0,7 mm 8 m/S 723 mmHg 84%
    13:00 0°C° 0,7 mm 7 m/S 722 mmHg 86%
    14:00 0°C° 0,7 mm 7 m/S 721 mmHg 87%
    15:00 +2°C° 0,7 mm 6 m/S 720 mmHg 88%
    16:00 +2°C° 0,3 mm 6 m/S 719 mmHg 89%
    17:00 +2°C° 0,3 mm 6 m/S 719 mmHg 89%
    18:00 +3°C° 0,3 mm 6 m/S 718 mmHg 89%
    19:00 +3°C° 0,8 mm 7 m/S 717 mmHg 89%
    20:00 +4°C° 0,8 mm 8 m/S 716 mmHg 88%
    21:00 +3°C° 0,8 mm 9 m/S 715 mmHg 87%
    22:00 +2°C° 1 mm 8 m/S 715 mmHg 84%
    23:00 +2°C° 1 mm 6 m/S 716 mmHg 81%

    übermorgen, 14 Dezember, Donnerstag

    Zeit Temperatur Niederschläge Wind Luftdruck Luftfeuchtigkeit
    00:00 +1°C° 1 mm 5 m/S 716 mmHg 78%
    01:00 +1°C° 0,5 mm 6 m/S 716 mmHg 76%
    02:00 0°C° 0,5 mm 8 m/S 716 mmHg 74%
    03:00 0°C° 0,5 mm 9 m/S 716 mmHg 72%
    04:00 -1°C° 0 mm 8 m/S 717 mmHg 73%
    05:00 -2°C° 0 mm 7 m/S 717 mmHg 73%
    06:00 -3°C° 0 mm 6 m/S 718 mmHg 73%
    07:00 -2°C° 0 mm 6 m/S 718 mmHg 74%
    08:00 -2°C° 0 mm 6 m/S 719 mmHg 74%
    09:00 -2°C° 0 mm 6 m/S 719 mmHg 75%
    10:00 -1°C° 0,1 mm 6 m/S 718 mmHg 75%
    11:00 +1°C° 0,1 mm 6 m/S 717 mmHg 76%
    12:00 +2°C° 0,1 mm 6 m/S 717 mmHg 76%
    13:00 +1°C° 1,6 mm 5 m/S 715 mmHg 81%
    14:00 +1°C° 1,6 mm 4 m/S 714 mmHg 86%
    15:00 +2°C° 1,6 mm 3 m/S 713 mmHg 90%
    16:00 +1°C° 0,4 mm 4 m/S 712 mmHg 89%
    17:00 +1°C° 0,4 mm 5 m/S 711 mmHg 87%
    18:00 +1°C° 0,4 mm 6 m/S 711 mmHg 86%
    19:00 +1°C° 0,1 mm 6 m/S 711 mmHg 85%
    20:00 -1°C° 0,1 mm 6 m/S 712 mmHg 85%
    21:00 -1°C° 0,1 mm 6 m/S 713 mmHg 84%
    22:00 -2°C° 0,2 mm 6 m/S 713 mmHg 84%
    23:00 -1°C° 0,2 mm 5 m/S 714 mmHg 84%

    15 Dezember, Freitag

    Zeit Temperatur Niederschläge Wind Luftdruck Luftfeuchtigkeit
    00:00 -2°C° 0,2 mm 5 m/S 715 mmHg 83%
    01:00 -2°C° 0,1 mm 4 m/S 715 mmHg 85%
    02:00 -2°C° 0,1 mm 4 m/S 715 mmHg 87%
    03:00 -1°C° 0,1 mm 3 m/S 715 mmHg 88%
    04:00 -1°C° 0 mm 3 m/S 715 mmHg 89%
    05:00 -1°C° 0 mm 3 m/S 715 mmHg 90%
    06:00 0°C° 0 mm 3 m/S 716 mmHg 91%
    07:00 0°C° 0,2 mm 3 m/S 716 mmHg 91%
    08:00 0°C° 0,2 mm 3 m/S 716 mmHg 90%
    09:00 +1°C° 0,2 mm 3 m/S 716 mmHg 90%
    10:00 0°C° 1,5 mm 4 m/S 716 mmHg 91%
    11:00 0°C° 1,5 mm 4 m/S 716 mmHg 91%
    12:00 0°C° 1,5 mm 4 m/S 716 mmHg 91%
    13:00 +1°C° 0,9 mm 3 m/S 717 mmHg 92%
    14:00 +1°C° 0,9 mm 3 m/S 717 mmHg 94%
    15:00 +1°C° 0,9 mm 3 m/S 717 mmHg 95%
    16:00 +1°C° 0,5 mm 2 m/S 717 mmHg 95%
    17:00 +1°C° 0,5 mm 2 m/S 718 mmHg 96%
    18:00 +1°C° 0,5 mm 2 m/S 718 mmHg 97%
    19:00 -1°C° 0 mm 2 m/S 719 mmHg 96%
    20:00 -2°C° 0 mm 2 m/S 720 mmHg 96%
    21:00 -2°C° 0 mm 2 m/S 721 mmHg 95%
    22:00 -2°C° 0 mm 2 m/S 721 mmHg 95%
    23:00 -2°C° 0 mm 2 m/S 722 mmHg 95%

    16 Dezember, Samstag

    Zeit Temperatur Niederschläge Wind Luftdruck Luftfeuchtigkeit
    00:00 -2°C° 0 mm 3 m/S 723 mmHg 94%
    01:00 -2°C° 0,1 mm 3 m/S 723 mmHg 94%
    02:00 -1°C° 0,1 mm 3 m/S 723 mmHg 94%
    03:00 -1°C° 0,1 mm 3 m/S 724 mmHg 94%
    04:00 -1°C° 0,1 mm 3 m/S 724 mmHg 93%
    05:00 -1°C° 0,1 mm 3 m/S 725 mmHg 93%
    06:00 -2°C° 0,1 mm 3 m/S 725 mmHg 93%
    07:00 -1°C° 0,1 mm 3 m/S 726 mmHg 93%
    08:00 -2°C° 0,1 mm 4 m/S 726 mmHg 93%
    09:00 -1°C° 0,1 mm 4 m/S 727 mmHg 93%
    10:00 -1°C° 0,1 mm 4 m/S 727 mmHg 93%
    11:00 -1°C° 0,1 mm 4 m/S 727 mmHg 92%
    12:00 0°C° 0,1 mm 4 m/S 727 mmHg 92%
    13:00 0°C° 0,1 mm 4 m/S 728 mmHg 91%
    14:00 0°C° 0,1 mm 3 m/S 728 mmHg 90%
    15:00 0°C° 0,1 mm 3 m/S 728 mmHg 89%
    16:00 0°C° 0 mm 3 m/S 729 mmHg 90%
    17:00 -1°C° 0 mm 3 m/S 729 mmHg 91%
    18:00 -1°C° 0 mm 3 m/S 730 mmHg 92%
    19:00 -2°C° 0 mm 3 m/S 730 mmHg 92%
    20:00 -2°C° 0 mm 3 m/S 730 mmHg 93%
    21:00 -2°C° 0 mm 3 m/S 731 mmHg 94%
    22:00 -2°C° 0 mm 3 m/S 731 mmHg 94%
    23:00 -2°C° 0 mm 3 m/S 732 mmHg 94%

    17 Dezember, Sonntag

    Zeit Temperatur Niederschläge Wind Luftdruck Luftfeuchtigkeit
    00:00 -2°C° 0 mm 3 m/S 732 mmHg 94%
    01:00 -2°C° 0 mm 3 m/S 732 mmHg 94%
    02:00 -2°C° 0 mm 3 m/S 733 mmHg 95%
    03:00 -2°C° 0 mm 3 m/S 733 mmHg 95%
    04:00 -2°C° 0 mm 3 m/S 733 mmHg 95%
    05:00 -2°C° 0 mm 3 m/S 734 mmHg 95%
    06:00 -2°C° 0 mm 3 m/S 734 mmHg 95%
    07:00 -2°C° 0 mm 2 m/S 734 mmHg 95%
    08:00 -2°C° 0 mm 2 m/S 735 mmHg 94%
    09:00 -1°C° 0 mm 2 m/S 736 mmHg 94%
    10:00 -1°C° 0 mm 2 m/S 736 mmHg 93%
    11:00 +1°C° 0 mm 2 m/S 736 mmHg 93%
    12:00 +1°C° 0 mm 2 m/S 736 mmHg 92%
    13:00 +1°C° 0 mm 2 m/S 736 mmHg 92%
    14:00 -1°C° 0 mm 2 m/S 737 mmHg 92%
    15:00 -1°C° 0 mm 2 m/S 737 mmHg 93%
    16:00 -2°C° 0 mm 2 m/S 737 mmHg 93%
    17:00 -2°C° 0 mm 2 m/S 737 mmHg 93%
    18:00 -3°C° 0 mm 2 m/S 738 mmHg 93%
    19:00 -3°C° 0 mm 2 m/S 738 mmHg 92%
    20:00 -4°C° 0 mm 2 m/S 738 mmHg 91%
    21:00 -4°C° 0 mm 2 m/S 738 mmHg 91%
    22:00 -4°C° 0 mm 2 m/S 738 mmHg 91%
    23:00 -4°C° 0 mm 2 m/S 738 mmHg 91%
    Mehr zeigen